Retour au catalogue

COSMOS 970 DEB

ActifLEO
NORAD 15559·DEBRIS·🇷🇺 Russia

Lancé Dec 21, 1977 depuis Baikonur Cosmodrome

Loading…

Prochains Passages (prochaines 24 heures)

TLE

FraisSource: Space-Track

Époque: Sep 14, 2026, 14:03 UTC

1 15559U 77121BM  26257.58607887  .00000023  00000-0  12083-3 0  9996
2 15559  65.5818   3.1937 0126070 343.6029  27.5653 13.65345999 72704

Suivez COSMOS 970 DEB en temps réel avec AllMySat

Download on the App Store